World > North America > United States > Idaho

Stites, Idaho Regional Weather

Lat: 46.09N, Lon: 115.98W
Wx Zone: IDZ007
Feedback

Stites, ID Regional Weather

Expires:201908201700;;937111
ASUS45 KBOI 201610
RWRID 

IDAHO REGIONAL WEATHER ROUNDUP
NATIONAL WEATHER SERVICE BOISE ID
1000 AM MDT TUE AUG 20 2019

NOTE: "FAIR" INDICATES FEW OR NO CLOUDS BELOW 12000 FEET
WITH NO SIGNIFICANT WEATHER AND/OR OBSTRUCTIONS TO VISIBILITY


IDZ002-004-006-007-026-201700-
NORTHERN IDAHO

  
CITY           SKY/WX    TMP DP  RH WIND       PRES   REMARKS
LEWISTON       MOSUNNY   70  47  43 CALM      29.98S                  
LOWELL           N/A     63  52  67 CALM      30.04                   
COEUR D'ALENE  SUNNY     70  49  47 NE12      30.04S                  
MULLAN PASS    SUNNY     63  43  48 SE6       30.21S                  
$$
  

SKY/WX - Weather  TMP - Temperature  DP - Dew Point  RH - Relative Humidity
WIND - Wind Direction/Speed PRES - Barometric Pressure VSB - Visibility
WCI - Wind Chill Index E13G22 Wind - East Wind 13 mph/Gusts of 22 mph